Temp
17 17 17 16 16 16 15 14 14 13 14 15 15 15 16 16 16 16 16 16 16 16 16 16 15 14 15 15 15 15 15 15 15
17 17 16 16 16 16 15 15 14 14 15 15 15 15 15 16 16 16 16 16 16 16 16 15 15 15 15 15 15 15 15 15 14
17 17 17 16 16 16 16 15 15 15 15 16 15 15 15 15 15 15 16 15 15 15 15 15 15 15 15 15 15 15 14 15 14
17 17 17 17 16 17 16 16 15 15 15 15 15 15 15 15 15 15 15 15 15 15 15 15 15 15 15 15 15 14 14 14 14
17 17 17 17 17 17 16 16 16 15 15 14 14 15 15 14 14 15 15 15 15 15 14 14 14 14 14 14 14 14 14 14 13
17 17 17 16 16 17 16 16 16 16 15 15 14 14 14 14 14 14 14 14 14 14 14 14 14 14 14 14 14 14 14 13 13
17 17 17 17 17 16 16 16 16 16 15 14 14 14 14 14 14 14 14 14 14 14 14 14 14 13 13 13 13 13 13 13 13
17 17 17 17 17 17 17 16 16 16 15 15 14 14 14 14 14 14 14 14 14 14 14 14 13 13 13 13 13 12 12 12 12
16 17 17 17 17 17 17 16 16 15 15 15 15 15 15 15 15 14 14 14 14 14 13 13 13 13 12 12 12 12 12 12 12
17 16 16 16 16 16 16 15 15 15 15 15 14 14 15 14 15 14 14 14 14 13 13 13 13 12 12 12 12 12 11 11 11
17 17 16 16 16 15 15 14 14 14 14 14 14 14 14 14 14 14 14 14 13 13 13 13 13 12 12 12 11 11 11 11 11
16 16 16 15 15 14 14 14 14 14 14 14 15 14 14 14 14 14 14 13 13 13 13 12 12 12 12 12 11 11 11 10 10
16 15 15 14 15 14 14 14 14 14 14 14 14 14 14 14 14 14 14 13 13 12 12 12 12 12 12 11 11 10 10 10 10
16 15 15 14 14 14 14 13 14 14 14 14 14 14 14 14 14 14 13 13 13 12 12 12 12 12 12 12 11 11 10 10 9
15 15 14 14 14 13 14 14 14 14 14 13 14 14 14 14 14 14 13 13 12 12 12 12 12 12 11 11 11 11 11 10 10
14 15 14 14 14 14 14 13 13 14 13 13 13 14 14 14 14 13 13 12 12 12 12 12 11 11 11 11 11 11 11 10 10
14 14 14 14 14 14 13 13 14 13 13 13 13 13 14 15 14 13 13 12 12 12 12 12 11 11 10 10 10 10 11 11 11
14 14 13 13 14 15 15 14 14 14 13 13 12 12 13 13 14 14 12 12 12 12 11 12 11 11 10 10 10 10 10 10 10
13 13 14 13 13 13 14 13 14 13 13 12 12 12 12 11 12 12 13 11 11 11 11 11 10 10 10 10 9 9 9 9 9
12 13 13 12 12 12 12 12 13 12 13 12 12 12 11 11 11 11 12 11 11 11 11 10 10 9 9 9 9 9 8 8 8
Height
1561 1562 1564 1567 1568 1570 1572 1574 1575 1576 1576 1577 1577 1577 1577 1577 1577 1577 1576 1575 1574 1574 1573 1572 1571 1571 1570 1568 1567 1566 1565 1563 1562
1562 1564 1566 1568 1570 1572 1574 1576 1577 1578 1578 1579 1579 1580 1580 1580 1579 1579 1578 1577 1576 1576 1575 1574 1573 1572 1571 1570 1568 1567 1566 1565 1564
1564 1566 1568 1571 1573 1574 1576 1578 1579 1580 1581 1581 1581 1582 1582 1582 1582 1581 1580 1579 1579 1577 1576 1576 1575 1574 1573 1572 1571 1569 1568 1567 1566
1567 1569 1571 1573 1575 1576 1578 1579 1580 1581 1582 1582 1583 1584 1584 1584 1584 1583 1582 1582 1581 1580 1579 1578 1577 1576 1575 1574 1572 1571 1570 1568 1568
1570 1572 1573 1575 1577 1578 1579 1581 1582 1583 1584 1584 1584 1585 1585 1585 1585 1585 1584 1584 1583 1582 1581 1580 1579 1578 1577 1575 1574 1572 1572 1571 1570
1572 1574 1575 1577 1578 1580 1581 1582 1583 1584 1585 1585 1585 1585 1586 1586 1586 1586 1585 1585 1584 1583 1583 1582 1581 1580 1578 1577 1576 1575 1573 1572 1571
1572 1574 1576 1577 1579 1581 1582 1583 1584 1585 1585 1585 1586 1586 1586 1586 1587 1586 1586 1585 1585 1584 1583 1583 1582 1581 1580 1579 1577 1576 1575 1574 1573
1573 1575 1576 1578 1579 1580 1582 1583 1584 1585 1585 1585 1585 1585 1585 1586 1586 1586 1586 1586 1585 1584 1583 1583 1582 1581 1581 1580 1578 1577 1576 1575 1574
1573 1575 1577 1578 1580 1580 1581 1583 1584 1585 1585 1585 1585 1585 1585 1585 1586 1586 1586 1586 1585 1584 1584 1583 1582 1582 1581 1581 1579 1578 1577 1576 1575
1573 1575 1577 1579 1580 1581 1581 1583 1584 1584 1585 1586 1586 1586 1585 1586 1586 1586 1586 1586 1585 1585 1584 1583 1583 1582 1581 1580 1579 1579 1578 1577 1576
1572 1574 1576 1578 1579 1580 1582 1583 1583 1584 1584 1584 1585 1585 1585 1585 1586 1586 1586 1586 1585 1584 1584 1583 1582 1582 1581 1580 1580 1579 1578 1577 1577
1571 1573 1574 1576 1578 1580 1581 1581 1581 1582 1582 1583 1584 1584 1584 1585 1585 1585 1585 1585 1584 1584 1583 1583 1582 1581 1580 1580 1579 1579 1579 1578 1578
1570 1572 1573 1575 1576 1578 1579 1580 1580 1580 1581 1582 1582 1582 1583 1583 1583 1583 1583 1583 1583 1583 1582 1582 1582 1581 1579 1578 1577 1576 1577 1577 1576
1568 1570 1572 1573 1575 1576 1577 1578 1579 1579 1579 1580 1580 1580 1581 1581 1581 1582 1582 1581 1582 1581 1581 1581 1580 1580 1579 1578 1577 1576 1575 1575 1575
1568 1569 1571 1572 1573 1574 1575 1576 1577 1578 1578 1578 1577 1578 1578 1579 1578 1579 1580 1580 1579 1579 1579 1578 1578 1577 1577 1576 1576 1574 1573 1573 1573
1566 1568 1569 1571 1572 1573 1574 1575 1575 1576 1576 1576 1575 1575 1575 1576 1576 1577 1576 1578 1577 1577 1576 1576 1576 1575 1574 1573 1573 1572 1571 1571 1570
1564 1565 1567 1567 1569 1570 1572 1573 1573 1574 1574 1574 1574 1573 1572 1572 1573 1573 1573 1573 1574 1574 1573 1573 1573 1573 1571 1570 1569 1569 1569 1569 1568
1561 1562 1563 1564 1564 1565 1569 1570 1569 1571 1571 1572 1573 1572 1570 1570 1570 1570 1570 1570 1570 1570 1570 1570 1570 1570 1568 1567 1566 1565 1565 1565 1565
1558 1559 1560 1561 1560 1561 1561 1564 1564 1565 1566 1566 1567 1568 1569 1568 1568 1568 1568 1567 1567 1566 1567 1566 1567 1567 1565 1564 1562 1561 1561 1561 1561
1552 1552 1554 1556 1558 1557 1558 1561 1561 1563 1563 1562 1562 1563 1566 1565 1563 1565 1565 1564 1563 1564 1563 1562 1564 1563 1561 1561 1560 1559 1558 1557 1557
Wind_Speed
20 22 23 24 25 26 26 24 22 17 15 18 17 16 15 15 15 15 15 14 13 11 10 10 9 7 7 8 10 12 12 14 14
24 24 25 24 24 24 24 22 20 17 14 16 16 16 15 15 14 14 15 15 13 12 12 11 10 10 10 11 12 12 13 13 14
24 23 23 24 24 24 23 21 19 16 13 13 14 15 15 14 14 14 13 13 13 12 12 12 12 12 12 12 12 12 12 13 14
24 23 23 23 22 22 21 19 17 15 13 10 13 12 12 13 13 12 12 12 12 12 12 12 12 12 11 11 11 12 12 12 13
22 22 21 21 20 20 18 17 15 13 12 8 7 10 10 10 10 9 9 10 11 11 11 12 12 11 11 11 11 11 11 11 11
20 20 20 19 18 17 16 15 13 12 11 10 5 6 7 8 8 8 9 9 9 10 10 11 11 11 11 11 11 10 10 10 10
19 19 18 17 16 14 13 12 11 11 10 8 5 3 4 6 6 6 7 8 8 8 9 10 10 10 11 11 10 10 9 9 9
18 18 18 16 14 13 11 10 10 9 8 8 6 3 1 2 3 4 5 6 7 7 7 8 9 9 10 9 9 9 8 8 8
16 15 14 13 12 12 11 10 9 8 8 7 6 5 3 2 2 3 3 4 5 6 6 7 7 8 8 9 8 7 7 6 7
16 12 11 10 10 10 10 10 8 6 7 6 5 5 5 6 4 3 2 3 4 5 5 6 6 7 6 7 7 7 6 6 6
13 12 11 10 10 10 10 7 7 5 5 6 6 6 8 8 6 4 3 3 3 5 6 7 7 7 6 6 6 6 4 4 4
13 12 12 9 9 9 10 9 7 7 8 8 8 8 7 8 6 5 5 4 4 4 5 7 7 9 10 8 7 6 5 4 3
14 14 12 10 10 10 10 9 9 10 11 10 10 10 9 8 8 8 7 6 6 6 6 6 7 9 9 9 10 11 10 8 5
15 14 13 13 13 13 13 13 14 14 14 13 12 11 10 9 10 10 10 9 9 8 7 6 8 10 9 10 10 11 13 12 9
18 17 17 17 17 17 18 17 17 15 13 12 12 12 12 12 12 12 12 11 11 11 10 10 10 11 11 10 10 11 12 12 11
15 17 20 22 22 19 17 16 15 15 13 13 14 14 14 15 14 14 12 13 13 13 13 13 13 13 12 12 12 11 11 11 11
15 14 15 19 18 15 14 14 14 14 14 14 13 11 11 12 14 15 14 14 16 16 17 16 15 15 13 15 13 11 11 14 14
21 18 13 15 15 10 13 14 14 14 14 15 13 6 3 6 9 13 17 16 17 19 17 16 16 15 17 15 13 12 14 15 15
23 23 21 20 20 21 22 17 19 19 17 15 17 17 19 11 8 12 15 17 18 16 17 17 17 17 15 13 14 14 14 15 15
23 24 24 21 22 21 20 21 20 17 16 14 14 12 19 17 16 22 19 19 18 18 21 19 20 15 15 15 15 15 14 14 15
Wind_Direction
130 127 125 124 123 125 128 127 121 116 111 103 96 88 87 87 84 83 82 78 74 70 68 68 71 68 51 46 38 38 38 44 47
131 129 125 125 125 127 128 127 121 119 110 104 97 90 85 82 79 76 74 72 70 66 62 60 59 55 50 45 45 47 51 51 51
130 129 127 126 128 127 129 130 127 123 115 105 98 93 82 80 74 71 69 67 64 62 59 56 54 51 49 48 49 51 54 53 53
130 129 129 130 129 129 131 131 129 128 120 116 108 99 86 77 70 65 63 62 59 56 54 52 50 48 49 50 50 52 52 51 53
134 134 133 131 130 129 130 131 130 131 125 116 96 96 84 73 64 58 55 55 52 49 47 46 46 45 44 45 47 50 50 52 55
140 140 138 137 136 135 135 136 136 138 136 132 132 89 77 64 53 51 46 44 44 43 43 42 41 40 40 40 40 42 46 50 54
150 150 148 146 145 144 144 147 149 147 148 145 144 119 80 68 54 44 40 39 37 35 36 39 39 39 38 37 36 36 40 49 55
160 161 160 159 159 159 161 164 164 163 164 165 168 191 143 60 46 36 35 36 33 30 29 33 36 37 36 36 35 33 37 46 51
172 171 170 170 172 171 173 174 175 178 186 186 194 206 236 283 320 1 13 21 33 26 22 21 25 28 28 29 30 33 38 44 49
179 174 181 188 194 192 186 184 184 185 193 202 213 226 246 258 270 289 323 347 5 11 8 3 3 7 7 11 16 20 29 43 50
199 197 190 187 185 193 194 199 204 215 214 225 229 230 247 256 256 267 283 301 329 344 346 347 344 345 344 335 346 355 4 21 38
203 203 202 194 192 193 201 213 233 241 250 243 233 234 235 241 251 260 267 278 304 316 325 336 320 319 319 318 315 315 318 331 345
210 213 214 215 217 223 230 240 247 248 249 251 253 250 243 243 255 261 264 268 287 302 309 319 319 325 316 304 291 291 290 295 287
225 230 231 229 235 245 250 258 254 253 256 251 246 247 250 258 262 265 267 272 280 284 288 308 303 314 304 303 296 288 274 270 274
229 233 239 243 245 248 247 248 251 252 247 247 246 250 255 256 257 263 263 267 267 273 271 283 296 302 295 286 297 292 286 276 269
227 234 237 239 240 247 249 251 249 250 249 253 258 262 263 264 266 262 258 259 264 263 262 272 285 293 290 295 289 286 290 294 284
237 241 241 235 235 238 244 250 250 247 248 256 266 280 283 273 256 251 246 248 247 255 262 270 281 295 289 294 284 273 277 291 285
242 238 232 233 224 245 261 255 253 251 248 252 251 278 277 308 278 275 244 246 254 258 249 274 278 289 282 287 284 282 281 275 276
235 245 240 232 231 233 229 244 249 248 251 267 276 263 270 280 295 277 267 246 237 236 256 270 281 285 283 281 281 286 281 280 274
232 233 239 245 247 252 242 245 246 256 257 259 260 264 276 275 281 273 259 245 244 255 274 276 283 274 275 276 284 284 279 281 279